This is the latest recevied weather packets stored in our database for station/object KD7CIH. If no packets are shown the sender has not sent any weather packets the latest 10 day(s).
| Time | Temp. | Humidity | Pressure | Rain* | Wind** | Luminosity | Snow |
|---|---|---|---|---|---|---|---|
| 1787561587 | 17.22° C | 61% | 1021.8 hPa | 0 mm | - | - | - |
| 1787561289 | 17.22° C | 56% | 1021.6 hPa | 0 mm | - | - | - |
| 1787561117 | 16.67° C | 62% | 1021.6 hPa | 0 mm | - | - | - |
| 1787560687 | 16.67° C | 62% | 1021.5 hPa | 0 mm | - | - | - |
| 1787560386 | 16.67° C | 61% | 1021.7 hPa | 0 mm | - | - | - |
| 1787560087 | 17.22° C | 56% | 1021.8 hPa | 0 mm | - | - | - |
| 1787559788 | 16.67° C | 56% | 1021.9 hPa | 0 mm | - | - | - |
| 1787559486 | 16.67° C | 59% | 1022.1 hPa | 0 mm | - | - | - |
| 1787559314 | 16.67° C | 61% | 1022.1 hPa | 0 mm | - | - | - |
| 1787558890 | 16.67° C | 62% | 1021.9 hPa | 0 mm | - | - | - |
| 1787558586 | 16.67° C | 60% | 1022.1 hPa | 0 mm | - | - | - |
| 1787558286 | 16.67° C | 60% | 1022.1 hPa | 0 mm | - | - | - |
| 1787558114 | 16.11° C | 61% | 1022.2 hPa | 0 mm | - | - | - |
| 1787557813 | 16.11° C | 62% | 1022.2 hPa | 0 mm | - | - | - |
| 1787557386 | 16.67° C | 61% | 1022.2 hPa | 0 mm | - | - | - |
| 1787557087 | 16.11° C | 62% | 1022.1 hPa | 0.25 mm | - | - | - |
| 1787556789 | 16.67° C | 61% | 1022.2 hPa | 0.25 mm | - | - | - |
| 1787556615 | 16.67° C | 61% | 1022.3 hPa | 0.25 mm | - | - | - |
| 1787556187 | 16.67° C | 60% | 1022.7 hPa | 0.25 mm | - | - | - |
| 1787555888 | 17.22° C | 57% | 1022.8 hPa | 0.25 mm | - | - | - |
| 1787555586 | 17.78° C | 56% | 1022.8 hPa | 0.25 mm | - | - | - |
| 1787555287 | 18.33° C | 54% | 1022.7 hPa | 0.25 mm | - | - | - |
| 1787554987 | 18.33° C | 52% | 1022.4 hPa | 0.25 mm | - | - | - |
| 1787554687 | 18.33° C | 53% | 1022.1 hPa | 0.25 mm | - | - | - |
| 1787554385 | 17.78° C | 58% | 1021.8 hPa | 0.51 mm | - | - | - |
* Rain latest hour (hover to see other rain measurements)
** Current wind speed in m/s (hover to see current wind gust speed)